Simultaneous Nadir Overpasses (SNOs) Predictions

Prediction of SNOs between GOES-17 and LANDSAT-8 Satellite Orbit:

Table of predicted SNOs for the next 14.0 days since TLE Epoch: 7/14/2024
Index Date Time (GOES-17) GOES-17 Lat,Lon LANDSAT-8 Lat,Lon Distance(km) Time Diff (sec)
1 07/14/2024 16:59:58 -0.00,-104.73 -0.63,-101.82 330.72 80
2 07/15/2024 05:21:23 -0.00,-104.71 -0.47,-107.02 262.15 80
3 07/17/2024 05:06:34 -0.01,-104.71 0.14,-104.06 73.43 80
4 07/19/2024 04:54:25 -0.01,-104.70 0.77,-101.11 408.57 80
5 07/19/2024 17:15:41 0.01,-104.72 0.34,-106.27 175.54 80
6 07/21/2024 17:06:12 0.00,-104.72 -0.32,-103.32 159.60 80
7 07/22/2024 05:27:36 -0.00,-104.70 -0.82,-108.50 433.26 80
8 07/23/2024 16:54:02 -0.00,-104.71 -0.94,-100.36 494.91 80
9 07/24/2024 05:15:26 0.00,-104.69 -0.20,-105.55 97.86 80
10 07/26/2024 05:00:36 0.01,-104.69 0.45,-102.60 238.00 80
11 07/26/2024 17:21:52 -0.01,-104.71 0.63,-107.75 346.05 80
